DL5MAC-13 Weather Reports


Display with metric or nautical units.
time (UTC)temp
F
wind
direction
speed
MPH
gust
MPH
rain 1hr
in
rain 24hr
in
rain mn
in
humidity
%
barometer
mb
20260504045114 56 0.0 0.0 0.00 0.00 0.00 63 1018.1
20260504044035 56 0.0 0.0 0.00 0.00 0.00 63 1018.0
20260504043057 55 0.0 0.0 0.00 0.00 0.00 64 1017.9
20260504042017 55 0.0 0.0 0.00 0.00 0.00 63 1018.0
20260504041039 56 0.0 0.0 0.00 0.00 0.00 63 1017.9
20260504040106 56 0.0 0.0 0.00 0.00 0.00 63 1017.8
20260504035023 56 0.0 0.0 0.00 0.00 0.00 62 1017.9
20260504034048 56 0.0 0.0 0.00 0.00 0.00 61 1018.0
20260504033114 57 0.0 0.0 0.00 0.00 0.00 61 1017.9
20260504032033 57 0.0 0.0 0.00 0.00 0.00 60 1018.1
20260504031058 57 0.0 0.0 0.00 0.00 0.00 60 1018.0
20260504030019 57 0.0 0.0 0.00 0.00 0.00 59 1018.1
20260504025038 58 0.0 0.0 0.00 0.00 0.00 59 1018.1
20260504024105 58 0.0 0.0 0.00 0.00 0.00 59 1018.0
20260504023022 58 0.0 0.0 0.00 0.00 0.00 59 1018.0
20260504022048 58 0.0 0.0 0.00 0.00 0.00 58 1018.1
20260504021114 59 0.0 0.0 0.00 0.00 0.00 56 1017.9
20260504020033 59 0.0 0.0 0.00 0.00 0.00 55 1017.9
20260504015058 59 0.0 0.0 0.00 0.00 0.00 55 1017.9
20260504014018 60 0.0 0.0 0.00 0.00 0.00 55 1018.0
20260504013039 60 0.0 0.0 0.00 0.00 0.00 55 1018.0
20260504012106 60 0.0 0.0 0.00 0.00 0.00 54 1017.9
20260504011024 60 0.0 0.0 0.00 0.00 0.00 56 1018.0
20260504010048 60 0.0 0.0 0.00 0.00 0.00 57 1017.8
20260504005114 60 0.0 0.0 0.00 0.00 0.00 57 1017.6
20260504004039 60 0.0 0.0 0.00 0.00 0.00 58 1017.5
20260504003057 60 0.0 0.0 0.00 0.00 0.00 60 1017.4
20260504002018 60 0.0 0.0 0.00 0.00 0.00 61 1017.3
20260504001040 59 0.0 0.0 0.00 0.00 0.00 62 1017.2
20260504000106 59 0.0 0.0 0.00 0.00 0.00 62 1016.9
20260503235023 59 0.0 0.0 0.00 0.00 0.00 62 1016.9
20260503234047 59 0.0 0.0 0.00 0.00 0.00 62 1016.8
20260503233114 59 0.0 0.0 0.00 0.00 0.00 61 1016.7
20260503232034 60 0.0 0.0 0.00 0.00 0.00 61 1016.7
20260503231058 60 0.0 0.0 0.00 0.00 0.00 60 1016.5
20260503230032 60 0.0 0.0 0.00 0.00 0.00 59 1016.4
20260503225058 60 0.0 0.0 0.00 0.00 0.00 59 1016.4
20260503224018 60 0.0 0.0 0.00 0.00 0.00 58 1016.3
20260503223041 60 0.0 0.0 0.00 0.00 0.00 58 1016.2
20260503222106 61 0.0 0.0 0.00 0.00 0.00 58 1016.3
20260503221025 61 0.0 0.0 0.00 0.00 0.00 58 1016.0
20260503220041 61 0.0 0.0 0.00 0.00 0.00 57 1016.0
20260503215025 62 0.0 0.0 0.00 0.00 0.00 57 1015.9
20260503214051 62 0.0 0.0 0.00 0.00 0.00 56 1015.8
20260503213034 62 0.0 0.0 0.00 0.00 0.00 56 1015.7
20260503212106 62 0.0 0.0 0.00 0.00 0.00 55 1015.6
20260503211024 62 0.0 0.0 0.00 0.00 0.00 55 1015.6
20260503210050 62 0.0 0.0 0.00 0.00 0.00 55 1015.6
20260503205115 62 0.0 0.0 0.00 0.00 0.00 54 1015.4
20260503204033 62 0.0 0.0 0.00 0.00 0.00 54 1015.3
20260503203059 62 0.0 0.0 0.00 0.00 0.00 54 1015.3
20260503202019 62 0.0 0.0 0.00 0.00 0.00 53 1015.4
20260503201040 62 0.0 0.0 0.00 0.00 0.00 53 1015.1
20260503200019 62 0.0 0.0 0.00 0.00 0.00 53 1015.0
20260503195039 63 0.0 0.0 0.00 0.00 0.00 53 1014.9
20260503194018 63 0.0 0.0 0.00 0.00 0.00 53 1014.9
20260503193039 64 0.0 0.0 0.00 0.00 0.00 52 1014.8
20260503192108 64 0.0 0.0 0.00 0.00 0.00 53 1014.7
20260503191040 65 0.0 0.0 0.00 0.00 0.00 52 1014.8
20260503190107 65 0.0 0.0 0.00 0.00 0.00 51 1014.7
20260503185024 66 0.0 0.0 0.00 0.00 0.00 51 1014.6
20260503184050 66 0.0 0.0 0.00 0.00 0.00 50 1014.5
20260503183034 67 0.0 0.0 0.00 0.00 0.00 49 1014.3
20260503182107 68 0.0 0.0 0.00 0.00 0.00 48 1014.4
20260503181034 69 0.0 0.0 0.00 0.00 0.00 47 1014.1
20260503180106 70 0.0 0.0 0.00 0.00 0.00 44 1014.1
20260503175034 71 0.0 0.0 0.00 0.00 0.00 43 1014.0
20260503174108 71 0.0 0.0 0.00 0.00 0.00 42 1014.1
20260503173025 73 0.0 0.0 0.00 0.00 0.00 40 1014.1
20260503172042 74 0.0 0.0 0.00 0.00 0.00 38 1014.0
20260503171115 75 0.0 0.0 0.00 0.00 0.00 37 1014.0
20260503131115 79 43 0.0 1.0 0.00 0.00 0.00 28 1015.7
20260503110108 79 44 1.0 2.0 0.00 0.00 0.00 35 1017.2
20260503081024 71 0.0 0.0 0.00 0.00 0.00 42 1019.0
20260503072037 66 42 0.0 1.0 0.00 0.00 0.00 45 1019.3
20260503071116 65 0.0 0.0 0.00 0.00 0.00 45 1019.2